When you browse on this site, cookies collect data to enhance your experience and personalize the content and advertising you see.
Visit our Privacy Policy to learn more. By continuing to use the site, you agree to this use of cookies and data.

Hourly Weather Brno

Today, 5 July, Sunday

Time Temperature Precipitation Wind Pressure Humidity
00:00 +18°C° 0 mm 1 mps 742 mmHg 86%
01:00 +18°C° 0 mm 1 mps 742 mmHg 88%
02:00 +16°C° 0 mm 1 mps 742 mmHg 89%
03:00 +16°C° 0 mm 1 mps 742 mmHg 90%
04:00 +16°C° 0 mm 1 mps 742 mmHg 91%
05:00 +18°C° 0 mm 2 mps 742 mmHg 86%
06:00 +19°C° 0 mm 2 mps 742 mmHg 81%
07:00 +21°C° 0 mm 2 mps 742 mmHg 76%
08:00 +24°C° 0 mm 3 mps 742 mmHg 71%
09:00 +25°C° 0 mm 3 mps 742 mmHg 66%
10:00 +27°C° 0 mm 4 mps 742 mmHg 61%
11:00 +27°C° 0 mm 4 mps 742 mmHg 60%
12:00 +28°C° 0 mm 4 mps 742 mmHg 59%
13:00 +29°C° 0 mm 4 mps 741 mmHg 58%
14:00 +29°C° 0.1 mm 4 mps 741 mmHg 59%
15:00 +29°C° 0.1 mm 4 mps 741 mmHg 60%
16:00 +29°C° 0.1 mm 3 mps 741 mmHg 61%
17:00 +27°C° 0.1 mm 3 mps 740 mmHg 68%
18:00 +26°C° 0.1 mm 2 mps 740 mmHg 75%
19:00 +25°C° 0.1 mm 2 mps 740 mmHg 81%
20:00 +23°C° 0 mm 2 mps 740 mmHg 84%
21:00 +22°C° 0 mm 1 mps 740 mmHg 87%
22:00 +21°C° 0 mm 1 mps 740 mmHg 90%
23:00 +20°C° 0 mm 1 mps 740 mmHg 90%

Tomorrow, 6 July, Monday

Time Temperature Precipitation Wind Pressure Humidity
00:00 +20°C° 0 mm 1 mps 740 mmHg 90%
01:00 +20°C° 0 mm 1 mps 740 mmHg 91%
02:00 +20°C° 0 mm 1 mps 740 mmHg 90%
03:00 +20°C° 0 mm 1 mps 740 mmHg 89%
04:00 +20°C° 0 mm 1 mps 739 mmHg 88%
05:00 +20°C° 0 mm 2 mps 739 mmHg 84%
06:00 +21°C° 0 mm 3 mps 739 mmHg 80%
07:00 +22°C° 0 mm 4 mps 739 mmHg 76%
08:00 +23°C° 0 mm 4 mps 739 mmHg 70%
09:00 +25°C° 0 mm 5 mps 739 mmHg 64%
10:00 +26°C° 0 mm 5 mps 739 mmHg 59%
11:00 +26°C° 0.2 mm 5 mps 739 mmHg 61%
12:00 +25°C° 0.2 mm 5 mps 739 mmHg 63%
13:00 +25°C° 0.2 mm 5 mps 739 mmHg 66%
14:00 +23°C° 0 mm 5 mps 739 mmHg 65%
15:00 +23°C° 0 mm 4 mps 738 mmHg 64%
16:00 +22°C° 0 mm 4 mps 738 mmHg 63%
17:00 +21°C° 0 mm 3 mps 739 mmHg 68%
18:00 +20°C° 0 mm 3 mps 739 mmHg 72%
19:00 +19°C° 0 mm 3 mps 739 mmHg 77%
20:00 +17°C° 0.5 mm 2 mps 740 mmHg 80%
21:00 +16°C° 0.5 mm 2 mps 741 mmHg 84%
22:00 +15°C° 0.5 mm 1 mps 742 mmHg 87%
23:00 +14°C° 0.6 mm 1 mps 742 mmHg 88%

Day after tomorrow, 7 July, Tuesday

Time Temperature Precipitation Wind Pressure Humidity
00:00 +14°C° 0.6 mm 1 mps 742 mmHg 90%
01:00 +13°C° 0.6 mm 2 mps 742 mmHg 92%
02:00 +13°C° 0.1 mm 2 mps 742 mmHg 91%
03:00 +12°C° 0.1 mm 3 mps 742 mmHg 90%
04:00 +11°C° 0.1 mm 3 mps 742 mmHg 89%
05:00 +12°C° 0 mm 4 mps 743 mmHg 86%
06:00 +13°C° 0 mm 4 mps 743 mmHg 83%
07:00 +14°C° 0 mm 5 mps 743 mmHg 80%
08:00 +15°C° 0 mm 5 mps 743 mmHg 74%
09:00 +16°C° 0 mm 5 mps 744 mmHg 68%
10:00 +17°C° 0 mm 5 mps 744 mmHg 62%
11:00 +19°C° 0 mm 5 mps 744 mmHg 60%
12:00 +19°C° 0 mm 5 mps 743 mmHg 58%
13:00 +20°C° 0 mm 5 mps 743 mmHg 56%
14:00 +20°C° 0 mm 5 mps 743 mmHg 56%
15:00 +20°C° 0 mm 5 mps 743 mmHg 57%
16:00 +20°C° 0 mm 5 mps 743 mmHg 57%
17:00 +18°C° 0 mm 4 mps 743 mmHg 63%
18:00 +17°C° 0 mm 3 mps 743 mmHg 68%
19:00 +16°C° 0 mm 2 mps 744 mmHg 73%
20:00 +15°C° 0 mm 2 mps 744 mmHg 76%
21:00 +13°C° 0 mm 1 mps 744 mmHg 79%
22:00 +12°C° 0 mm 1 mps 744 mmHg 82%
23:00 +11°C° 0 mm 1 mps 744 mmHg 83%

8 July, Wednesday

Time Temperature Precipitation Wind Pressure Humidity
00:00 +11°C° 0 mm 1 mps 744 mmHg 84%
01:00 +9°C° 0 mm 0 mps 744 mmHg 84%
02:00 +9°C° 0 mm 0 mps 744 mmHg 85%
03:00 +9°C° 0 mm 0 mps 743 mmHg 85%
04:00 +9°C° 0 mm 0 mps 743 mmHg 86%
05:00 +10°C° 0 mm 0 mps 743 mmHg 81%
06:00 +13°C° 0 mm 1 mps 743 mmHg 76%
07:00 +15°C° 0 mm 1 mps 743 mmHg 71%
08:00 +18°C° 0 mm 1 mps 743 mmHg 68%
09:00 +18°C° 0 mm 2 mps 743 mmHg 65%
10:00 +20°C° 0 mm 2 mps 743 mmHg 62%
11:00 +21°C° 0 mm 2 mps 743 mmHg 58%
12:00 +23°C° 0 mm 2 mps 743 mmHg 54%
13:00 +24°C° 0 mm 2 mps 743 mmHg 51%
14:00 +23°C° 0 mm 2 mps 743 mmHg 54%
15:00 +23°C° 0 mm 2 mps 742 mmHg 58%
16:00 +23°C° 0 mm 2 mps 742 mmHg 61%
17:00 +20°C° 0 mm 2 mps 742 mmHg 67%
18:00 +20°C° 0 mm 1 mps 742 mmHg 72%
19:00 +19°C° 0 mm 1 mps 742 mmHg 78%
20:00 +19°C° 0 mm 1 mps 742 mmHg 78%
21:00 +18°C° 0 mm 1 mps 743 mmHg 77%
22:00 +16°C° 0 mm 1 mps 743 mmHg 77%
23:00 +16°C° 0 mm 1 mps 743 mmHg 79%

9 July, Thursday

Time Temperature Precipitation Wind Pressure Humidity
00:00 +15°C° 0 mm 1 mps 743 mmHg 81%
01:00 +15°C° 0 mm 1 mps 743 mmHg 82%
02:00 +15°C° 0 mm 1 mps 743 mmHg 84%
03:00 +13°C° 0 mm 0 mps 743 mmHg 86%
04:00 +13°C° 0 mm 0 mps 743 mmHg 87%
05:00 +14°C° 0 mm 0 mps 743 mmHg 83%
06:00 +16°C° 0 mm 0 mps 743 mmHg 80%
07:00 +17°C° 0 mm 0 mps 743 mmHg 76%
08:00 +19°C° 0 mm 0 mps 743 mmHg 72%
09:00 +22°C° 0 mm 1 mps 744 mmHg 68%
10:00 +24°C° 0 mm 1 mps 744 mmHg 64%
11:00 +24°C° 0.2 mm 2 mps 743 mmHg 62%
12:00 +25°C° 0.2 mm 2 mps 743 mmHg 61%
13:00 +25°C° 0.2 mm 2 mps 743 mmHg 59%
14:00 +26°C° 0.1 mm 2 mps 743 mmHg 58%
15:00 +26°C° 0.1 mm 2 mps 743 mmHg 57%
16:00 +26°C° 0.1 mm 2 mps 743 mmHg 55%
17:00 +25°C° 0 mm 2 mps 743 mmHg 62%
18:00 +24°C° 0 mm 2 mps 743 mmHg 68%
19:00 +22°C° 0 mm 1 mps 743 mmHg 75%
20:00 +21°C° 0 mm 1 mps 743 mmHg 77%
21:00 +19°C° 0 mm 2 mps 743 mmHg 78%
22:00 +18°C° 0 mm 2 mps 743 mmHg 80%
23:00 +19°C° 0 mm 1 mps 743 mmHg 81%

10 July, Friday

Time Temperature Precipitation Wind Pressure Humidity
00:00 +19°C° 0 mm 1 mps 743 mmHg 82%
01:00 +18°C° 0 mm 1 mps 743 mmHg 83%
02:00 +18°C° 0 mm 1 mps 743 mmHg 85%
03:00 +16°C° 0 mm 1 mps 743 mmHg 87%
04:00 +15°C° 0 mm 1 mps 742 mmHg 90%
05:00 +18°C° 0 mm 1 mps 742 mmHg 85%
06:00 +19°C° 0 mm 1 mps 742 mmHg 80%
07:00 +21°C° 0 mm 1 mps 742 mmHg 76%
08:00 +23°C° 0 mm 2 mps 742 mmHg 73%
09:00 +24°C° 0 mm 2 mps 742 mmHg 70%
10:00 +26°C° 0 mm 3 mps 742 mmHg 67%
11:00 +27°C° 0 mm 3 mps 741 mmHg 64%
12:00 +27°C° 0 mm 4 mps 741 mmHg 61%
13:00 +28°C° 0 mm 4 mps 740 mmHg 58%
14:00 +29°C° 0 mm 4 mps 740 mmHg 57%
15:00 +29°C° 0 mm 4 mps 740 mmHg 56%
16:00 +29°C° 0 mm 4 mps 740 mmHg 55%
17:00 +28°C° 0 mm 3 mps 739 mmHg 61%
18:00 +27°C° 0 mm 3 mps 739 mmHg 67%
19:00 +25°C° 0 mm 2 mps 739 mmHg 73%
20:00 +24°C° 0 mm 2 mps 739 mmHg 75%
21:00 +22°C° 0 mm 3 mps 740 mmHg 78%
22:00 +21°C° 0 mm 3 mps 740 mmHg 81%
23:00 +20°C° 0.2 mm 2 mps 740 mmHg 84%
Show more